SCP
0 0 0 0 0 0 0 0 0 0 0 -0 0 0 0 0 0 0 0 0 -0 -0 0 -0 -0 -0 0 -0 0 0 0 -0 -0 0 0 0 0 0 0 0 0 0 0 0 0 0 0 0 0 0 0 0 0 0
0 0 0 0 0 0 0 0 0 0 0 -0 0 0 0 0 0 0 0 0 -0 -0 0 0 -0 -0 -0 0 0 0 0 0 -0 -0 0 -0 0 -0 0 0 0 0 0 0 0 0 0 0 0 0 0 0 0 0
0 0 0 0 0 0 0 0 0 0 -0 -0 -0 0 0 0 0 0 0 -0 -0 -0 0 -0 0 -0 0 0 0 0 0 0 0 -0 -0 -0 -0 -0 -0 -0 0 -0 -0 0 0 0 0 0 -0 0 -0 0 0 0
0 0 0 0 0 0 0 0 0 0 -0 -0 -0 0 0 -0 -0 0 -0 -0 -0 -0 0 -0 -0 -0 0 0 0 0 0 0 0 0 -0 0 0 -0 0 -0 0 0 -0 -0 0 0 0 0 -0 0 0 0 0 0
0 0 0 0 0 0 0 0 0 -0 -0 -0 -0 0 -0 -0 -0 0 -0 -0 -0 -0 0 -0 -0 0 0 0 0 0 0 0 0 0 0 0 0 0 -0 0 0 0 -0 -0 -0 0 0 0 -0 0 0 0 0 0
0 0 0 0 0 0 0 0 0 -0 -0 -0 0 0 -0 -0 0 0 -0 -0 -0 -0 -0 0 -0 -0 -0 0 0 0 0 0 0 0 0 0 -0 0 0 0 0 -0 0 0 0 -0 -0 -0 0 0 0 0 0 0
0 0 0 0 0 0 0 -0 -0 -0 -0 -0 0 0 -0 -0 0 0 -0 -0 -0 -0 -0 0 0 -0 -0 0 0 0 0 0 0 0 0 0 0 0 0 0 0 0 -0 0 0 -0 0 0 0 0 0 0 0 -0
0 0 0 0 0 0 0 0 -0 -0 -0 -0 -0 -0 -0 -0 0 0 0 -0 -0 -0 -0 -0 0 0 -0 0 0 0 0 0 0 -0 0 0 0 0 0 0 0 0 0 0 0 0 -0 -0 0 0 0 0 0 0
0 0 0 0 0 0 0 0 0 -0 -0 -0 0 0 0 0 0 0 0 0 0 -0 -0 -0 0 0 -0 0 0 0 0 0 0 0 0 0 0 0 0 0 0 0 0 0 0 0 0 0 0 0 0 0 0 0
0 0 0 0 0 0 0 0 0 -0 0 0 0 0 0 0 -0 0 0 0 0 0 0 0 0 0 -0 0 0 0 0 0 0 -0 0 0 0 0 0 -0 -0 -0 0 0 0 0 0 0 0 0 0 -0 -0 -0
0 0 0 0 0 0 0 0 0 0 0 0 0 0 0 0 0 0 0 0 0 0 0 0 0 -0 0 0 0 0 0 0 0 0 -0 -0 -0 -0 -0 -0 -0 -0 -0 -0 -0 -0 -0 -0 -0 -0 -0 -0 -0 -0
0 0 0 0 0 0 0 0 0 0 0 0 0 0 0 0 0 0 0 0 0 0 0 0 0 0 0 0 0 0 0 -0 -0 0 -0 -0 0 0 -0 -0 -0 -0 -0 -0 -0 -0 -0 -0 -0 -0 -0 -0 -0 -0
0 0 0 0 0 0 0 0 0 0 0 0 0 0 0 0 0 0 0 0 0 0 0 0 0 0 0 0 0 -0 -0 0 0 -0 -0 -0 -0 -0 -0 -0 -0 -0 -0 -0 -0 -0 -0 -0 -0 0 0 0 0 0
0 0 0 0 0 0 0 0 0 0 0 0 0 0 0 0 0 0 0 0 0 0 0 0 0 0 0 0 0 0 -0 -0 -0 -0 -0 -0 -0 -0 -0 -0 0 0 0 0 0 0 0 0 0 0 0 0 0 0
0 0 0 0 0 0 0 0 0 0 0 0 0 0 0 0 0 0 0 0 0 0 0 0 0 0 0 0 0 0 0 -0 0 0 0 -0 0 0 0 0 0 0 0 0 0 0 0 0 0 0 0 0 0 0
0 0 0 0 0 0 0 0 0 0 0 0 0 0 0 0 0 0 0 0 0 0 0 0 0 0 0 0 0 0 0 -0 0 0 0 0 0 0 0 0 0 0 0 0 0 0 0 0 0 0 0 0 0 0
0 0 0 0 0 0 0 0 0 0 0 0 0 0 0 0 0 0 0 0 0 0 0 0 0 0 0 0 0 0 0 0 0 0 0 0 0 0 0 0 0 0 0 0 0 0 0 0 0 0 0 0 0 0
0 0 0 0 0 0 0 0 0 0 0 0 0 0 0 0 0 0 0 0 0 0 0 0 0 0 0 0 0 0 0 0 0 0 0 0 0 0 0 0 0 0 0 0 0 0 0 0 0 0 0 0 0 0
0 0 0 0 0 0 0 0 0 0 0 0 0 0 0 0 0 0 0 0 0 0 0 0 0 0 0 0 0 0 0 0 0 0 0 0 0 0 0 0 0 0 0 0 0 0 0 0 0 0 0 0 0 -0
0 0 0 0 0 0 0 0 0 0 0 0 0 0 0 0 0 0 0 0 0 0 0 0 0 0 0 0 0 0 0 0 0 0 0 0 0 0 0 0 0 0 0 0 0 0 0 0 0 0 0 0 -0 -0
0 0 0 0 0 0 0 0 0 0 0 0 0 0 0 0 0 0 0 0 0 0 0 0 0 0 0 0 0 0 0 0 0 0 0 0 0 0 0 0 0 0 0 0 0 0 0 0 0 0 0 -0 -0 0
0 0 0 0 0 0 0 0 0 0 0 0 0 0 0 0 0 0 0 0 0 0 0 0 0 0 0 0 0 0 0 0 0 0 0 0 0 0 0 0 0 0 0 0 0 0 0 0 0 -0 -0 -0 0 0
0 0 0 0 0 0 0 0 0 0 0 0 0 0 0 0 0 0 0 0 0 0 0 0 0 0 0 0 0 0 0 0 0 0 0 0 0 0 0 0 0 0 0 0 0 0 0 0 -0 -0 -0 -0 -0 -0
0 0 0 0 0 0 0 0 0 0 0 0 0 0 0 0 0 0 0 0 0 0 0 0 0 0 0 0 0 0 0 0 0 0 0 0 0 0 0 0 0 0 0 0 0 0 0 -0 -0 -0 -0 -0 -0 -0
0 0 0 0 0 0 0 0 0 0 0 0 0 0 0 0 0 0 0 0 0 0 0 0 0 0 0 0 0 0 0 0 0 0 0 0 0 0 0 0 0 0 0 0 0 0 -0 -0 -0 -0 -0 -0 -0 0
0 0 0 0 0 0 0 0 0 0 0 0 0 0 0 0 0 0 0 0 0 0 0 0 0 0 0 0 0 0 0 0 0 0 0 0 0 0 0 0 0 0 0 0 0 -0 -0 -0 -0 -0 -0 -0 0 0
0 0 0 0 0 0 0 0 0 0 0 0 0 0 0 0 0 0 0 0 0 0 0 0 0 0 0 0 0 0 0 0 0 0 0 0 0 0 0 0 0 0 0 0 -0 -0 -0 0 0 0 0 0 0 0
0 0 0 -0 -0 -0 -0 0 0 0 0 0 0 0 0 0 0 0 0 0 0 0 0 0 0 0 0 0 0 0 0 0 0 0 0 0 0 0 0 0 0 0 0 -0 -0 -0 0 0 0 0 0 0 0 0
0 0 0 0 0 -0 -0 -0 -0 -0 0 0 0 0 0 0 0 0 0 0 0 0 0 0 0 0 0 0 0 0 0 0 0 0 0 0 0 0 0 0 0 0 -0 -0 0 0 0 0 0 0 0 0 0 0
0 0 -0 0 0 -0 -0 0 -0 0 0 0 0 0 0 0 -0 -0 0 0 0 0 0 0 0 0 0 0 0 0 0 0 0 0 0 0 0 0 0 0 -0 -0 -0 -0 -0 -0 -0 -0 0 -0 0 0 0 0
0 0 -0 0 0 0 0 0 0 0 0 0 0 0 0 -0 -0 -0 0 0 0 0 0 0 0 0 0 0 0 0 0 0 0 0 0 0 0 0 0 -0 0 -0 -0 -0 -0 -0 -0 0 0 0 0 0 0 0
-0 0 0 0 0 0 0 0 0 -0 0 0 0 0 0 0 0 0 0 0 0 0 0 0 0 0 0 0 0 0 0 0 0 0 0 0 0 -0 -0 0 -0 -0 -0 -0 -0 0 0 0 0 0 0 0 0 0
0 0 0 0 0 0 -0 0 0 0 0 0 0 0 0 0 0 0 0 0 0 0 0 0 0 0 0 0 0 0 0 0 0 0 0 0 -0 -0 -0 -0 0 0 0 0 0 0 0 0 0 0 0 0 0 0
Wind_Speed_500mb
52 51 50 53 50 50 52 56 55 57 64 63 63 61 53 44 41 34 30 24 15 11 37 42 38 23 26 19 6 16 19 4 5 6 7 6 5 5 4 4 6 7 7 5 6 7 5 26 11 9 6 16 18 23
52 52 50 53 48 51 51 51 53 54 61 61 61 56 49 43 37 29 25 21 20 25 29 51 53 49 33 33 17 8 9 12 8 6 6 8 5 6 1 4 6 6 6 4 8 6 8 14 16 19 18 19 16 23
53 52 51 52 49 50 48 52 49 54 58 57 58 52 46 37 33 26 25 26 21 16 31 15 18 19 14 17 17 7 7 13 15 20 6 5 4 6 5 5 2 6 7 4 3 11 8 20 19 37 28 27 24 19
55 52 49 51 47 49 46 49 47 53 56 53 51 45 41 36 29 26 25 17 14 14 7 10 14 19 21 21 15 19 28 28 34 33 7 4 4 8 4 3 6 5 11 12 6 7 4 14 38 37 35 27 24 18
58 53 48 48 47 48 44 47 45 48 48 51 42 39 38 36 31 23 19 16 17 11 7 18 34 12 14 18 12 18 22 28 23 6 3 3 4 5 2 6 5 9 6 5 4 5 7 14 34 29 41 38 33 26
59 52 48 47 49 46 42 45 45 43 45 49 38 37 33 33 23 16 2 5 14 12 9 6 9 9 15 13 14 18 14 9 9 8 4 4 2 5 5 4 4 13 16 13 9 32 33 25 18 28 35 33 29 23
60 52 46 46 49 41 40 41 39 40 40 39 33 34 31 24 15 5 7 15 15 17 6 9 8 6 17 9 9 9 7 8 7 8 7 7 6 10 5 3 9 22 23 2 17 22 6 25 20 31 26 23 21 21
64 52 46 46 48 38 39 36 33 39 40 35 35 31 26 22 13 14 13 15 15 7 7 1 7 5 15 6 6 9 6 5 9 6 7 5 12 7 5 3 18 25 10 1 17 19 15 16 20 22 19 19 20 25
65 55 46 47 44 34 38 29 31 34 34 34 30 18 12 5 8 9 14 15 9 9 4 2 4 6 15 5 7 4 6 5 7 4 2 6 5 4 6 11 17 22 16 19 14 11 17 28 30 29 27 27 28 28
65 56 46 47 39 32 33 23 26 29 30 29 15 3 3 6 9 12 4 3 4 4 8 3 3 5 13 11 4 7 6 1 2 5 15 5 3 2 5 8 11 11 16 21 21 30 34 40 40 38 36 31 29 28
66 55 49 45 35 31 27 19 22 19 26 9 9 3 8 8 6 2 3 3 2 4 5 3 4 3 8 3 4 6 3 2 4 6 5 4 4 4 5 5 7 9 13 19 23 24 24 27 30 31 32 32 30 28
65 55 50 43 33 27 21 19 18 23 18 14 18 18 8 3 4 2 4 4 3 7 4 4 3 5 5 4 2 3 2 5 5 9 6 4 5 5 5 5 11 19 24 27 30 31 31 30 29 28 28 27 28 28
69 56 51 40 33 27 19 17 20 24 26 12 5 4 5 3 6 8 6 7 3 5 6 2 3 3 3 3 3 6 6 6 7 7 5 7 8 14 14 21 25 26 27 27 26 24 21 19 19 20 23 24 25 26
69 59 50 39 33 30 22 24 23 18 9 7 7 8 9 6 8 8 8 7 4 4 7 7 3 2 2 5 2 5 6 5 7 5 9 6 27 27 27 29 29 27 22 18 15 15 15 17 20 24 27 30 33 35
69 61 48 38 34 31 25 28 21 7 10 10 9 10 10 12 6 10 10 7 8 9 8 4 2 3 3 4 3 5 10 5 10 9 6 29 42 38 37 34 28 21 14 11 11 12 13 14 19 23 29 34 40 44
69 53 49 44 35 27 21 25 23 17 9 11 13 6 6 3 4 9 16 10 11 12 10 2 2 4 5 6 4 11 10 10 7 7 13 49 47 43 41 34 25 15 8 9 12 12 13 18 25 31 37 43 46 53
70 49 56 42 36 27 25 20 17 17 14 10 10 20 10 4 5 10 12 11 19 17 3 5 4 11 2 4 6 8 9 7 6 3 39 44 45 44 39 30 19 9 6 10 14 15 20 26 34 41 47 52 56 56
73 63 46 44 37 30 26 24 14 13 14 14 7 12 14 12 10 12 15 16 17 13 5 4 6 2 7 6 6 6 14 7 6 21 35 39 39 38 31 23 13 4 9 15 20 21 25 33 40 47 54 59 60 56
73 59 49 40 35 22 16 19 12 9 16 7 9 12 9 7 18 13 15 19 21 11 4 4 5 6 6 8 7 10 12 17 22 30 33 38 35 32 28 19 8 3 14 20 24 25 31 39 46 53 57 59 59 49
64 54 41 38 34 18 12 11 13 7 8 10 9 11 6 5 8 13 18 18 21 8 6 6 8 6 9 9 20 26 20 22 35 37 36 38 36 33 24 13 5 9 20 27 28 31 38 45 50 54 55 52 49 45
69 58 52 39 26 10 10 11 10 8 9 7 9 8 6 7 7 12 13 19 13 10 6 19 22 18 24 30 29 15 17 26 34 25 42 41 35 30 22 13 9 17 26 30 30 37 46 50 54 54 49 41 39 41
69 55 42 29 9 12 7 10 10 13 8 9 8 7 5 5 8 10 14 14 12 12 15 10 14 14 20 19 10 19 25 27 23 10 26 29 32 27 20 10 14 22 28 28 36 44 48 52 51 45 40 39 44 50
68 47 24 11 9 6 6 15 6 7 6 3 6 4 3 4 6 10 7 11 11 14 20 21 22 21 11 6 18 20 24 23 17 11 22 22 22 17 10 9 18 23 25 34 40 46 49 47 41 38 42 48 55 58
53 15 10 8 7 5 12 5 6 7 6 5 5 1 4 5 5 2 6 8 7 10 10 13 13 8 9 16 18 23 22 19 14 18 21 18 15 9 6 14 15 20 31 37 43 45 43 37 35 41 50 57 59 63
16 7 7 7 7 9 7 5 7 7 3 3 4 4 4 5 2 3 6 5 5 6 6 7 13 8 16 24 27 24 21 18 15 19 21 17 8 4 8 8 18 28 35 39 41 39 33 33 41 48 52 56 62 66
12 4 5 8 4 8 8 7 6 10 5 2 7 1 3 4 3 9 5 5 6 7 4 10 19 15 16 22 24 22 22 23 22 19 16 9 3 1 6 17 26 32 36 37 34 30 33 41 48 52 54 57 59 62
10 3 8 10 12 18 11 10 8 7 5 8 5 4 4 3 7 6 4 6 11 11 6 14 19 21 19 22 22 21 20 21 19 13 11 8 6 5 15 23 27 32 32 29 27 33 42 49 52 55 60 57 54 57
11 14 14 12 12 8 10 5 6 9 6 8 11 5 10 12 6 2 4 15 12 11 6 18 22 24 27 25 22 22 20 20 19 15 14 9 3 12 20 26 29 29 25 24 31 40 46 50 54 58 58 58 56 54
11 23 16 10 9 6 5 8 10 8 9 10 5 3 3 3 4 9 13 11 9 7 10 20 23 25 30 31 28 24 23 23 22 19 9 5 12 18 23 25 23 20 22 30 38 44 47 52 56 55 53 54 53 50
8 9 13 5 8 4 4 10 7 14 11 6 4 4 5 5 6 11 9 6 3 6 17 24 28 33 35 32 31 30 29 27 19 9 4 9 14 19 20 19 17 21 28 35 37 39 43 45 42 40 41 43 45 47
15 8 10 6 5 5 10 16 11 8 6 6 9 8 5 4 4 7 8 5 9 15 24 31 36 39 38 35 34 33 27 20 11 5 5 10 14 16 15 15 19 26 33 36 40 45 45 43 42 42 41 41 44 48
6 8 9 6 1 5 9 6 3 4 5 4 2 3 2 2 1 4 8 11 16 20 28 34 36 39 41 37 31 22 18 13 6 6 8 10 12 13 13 17 24 30 33 38 42 42 41 40 40 40 39 42 45 47
8 8 9 9 6 4 4 4 2 1 2 3 1 2 2 2 4 5 10 14 19 24 29 35 39 39 36 29 22 18 12 7 4 5 8 10 11 12 15 21 27 30 34 38 38 36 34 34 33 33 37 40 44 48
Wind_Direction_500mb
299 299 304 309 306 312 316 317 323 321 326 329 332 333 332 333 332 332 335 336 297 262 276 282 281 276 295 294 294 318 331 346 294 318 318 345 353 31 69 10 353 13 325 19 349 57 358 349 360 49 286 314 330 350
293 294 300 306 304 307 314 317 319 321 328 329 332 332 329 329 330 329 324 315 302 267 279 291 290 294 282 277 288 292 269 287 320 331 342 307 342 351 60 42 360 32 360 357 29 53 51 36 52 16 355 326 340 346
287 289 298 305 303 304 312 316 317 320 327 328 332 332 334 329 327 324 316 311 306 288 300 283 297 310 296 294 279 283 291 337 305 307 288 286 14 340 25 13 52 1 8 22 143 16 54 55 27 23 21 5 357 351
283 286 293 300 299 301 310 312 315 320 327 327 327 332 339 331 321 315 312 306 308 285 272 289 305 310 303 301 285 282 284 299 300 298 240 292 358 9 32 101 68 342 335 333 75 22 304 44 12 1 0 1 11 3
279 282 287 295 295 299 306 310 313 321 322 324 320 321 326 328 322 313 299 288 304 283 274 292 302 303 316 307 279 288 290 288 287 292 285 356 7 4 27 68 34 4 355 5 305 56 309 293 337 342 352 353 359 2
274 275 281 290 290 297 304 308 311 324 324 325 316 310 323 326 311 316 282 73 5 287 300 309 301 303 333 306 294 295 312 311 279 283 321 353 306 303 87 91 67 12 342 314 298 307 304 306 303 330 342 348 356 1
268 270 273 283 286 292 299 305 313 319 319 321 314 313 311 314 311 308 297 303 329 339 271 309 309 290 340 346 333 328 332 311 322 336 10 320 337 7 60 91 351 346 342 62 337 340 72 2 340 348 349 351 359 7
262 263 267 276 281 287 294 301 308 321 318 310 310 304 293 273 262 271 285 301 313 306 262 266 275 341 360 328 329 322 313 295 15 352 5 15 325 62 62 291 347 353 26 22 24 36 17 359 359 13 16 20 21 18
256 256 261 268 277 281 289 298 308 317 314 314 308 308 309 236 234 257 276 284 269 250 278 178 188 269 347 351 325 293 337 7 339 56 1 342 337 63 234 311 351 3 13 348 21 31 32 32 29 32 34 35 34 29
249 251 254 263 270 274 286 291 303 311 315 320 299 244 273 271 267 297 287 272 224 234 232 205 280 295 341 352 322 343 15 181 26 276 313 75 248 168 306 347 1 11 20 21 39 27 32 40 40 41 39 34 28 26
245 242 246 257 260 268 279 285 297 327 326 344 341 280 297 291 295 267 272 223 315 258 222 254 267 266 349 43 250 23 222 299 55 277 99 335 320 227 356 12 12 41 52 59 60 56 53 52 51 52 50 46 40 34
238 233 240 250 249 259 265 263 292 300 320 305 297 296 288 250 216 92 256 333 141 240 212 177 262 265 308 315 30 338 147 32 248 321 68 341 247 165 128 113 86 89 87 83 79 74 69 64 58 53 47 41 34 29
232 226 232 238 238 245 248 236 262 266 280 294 230 228 232 222 32 149 245 296 313 209 196 209 295 271 273 299 61 60 63 233 313 39 217 222 166 159 144 126 114 105 96 86 77 69 60 51 42 34 29 22 16 9
224 216 227 226 229 234 239 228 256 279 200 203 213 230 171 275 236 189 185 193 220 227 203 189 254 243 333 31 164 81 238 60 39 32 235 228 179 161 149 137 126 117 107 89 68 51 36 28 24 17 8 1 354 347
212 209 217 212 221 232 220 213 236 236 194 208 193 232 215 221 194 186 192 199 208 202 198 146 304 258 324 66 53 78 21 290 199 227 223 172 163 160 153 143 135 119 93 60 33 18 15 14 3 353 347 342 338 334
200 198 201 206 214 210 202 212 223 204 210 212 222 243 195 71 275 214 211 204 191 181 178 171 148 45 278 140 69 220 125 225 254 225 170 160 162 159 153 145 135 117 80 29 2 347 345 344 342 340 338 334 331 327
186 191 193 197 195 197 200 197 181 187 205 210 237 219 209 220 192 176 194 179 167 157 197 176 157 225 78 28 276 196 207 225 261 242 163 167 163 158 154 147 137 112 41 358 346 338 334 331 331 331 330 330 331 329
186 189 186 182 183 184 190 187 189 202 216 209 198 191 196 204 184 187 199 190 171 185 176 219 133 155 205 200 263 247 237 244 170 161 164 167 166 161 156 151 142 85 359 342 338 331 327 326 329 330 330 329 329 330
185 178 175 181 186 173 161 181 191 213 213 188 204 196 195 203 211 205 193 190 192 181 186 193 231 217 232 224 246 298 275 206 172 160 166 169 168 167 162 162 166 344 342 336 334 329 329 330 331 331 330 331 333 338
169 166 169 174 178 170 149 171 187 189 181 178 181 179 182 193 180 198 202 199 187 200 209 213 221 221 235 293 302 298 296 202 177 161 169 174 173 171 173 184 222 320 332 334 330 329 331 331 331 331 334 334 336 338
149 152 162 170 166 143 155 163 155 155 156 164 158 178 174 182 200 191 181 175 190 218 238 235 239 259 273 283 292 283 185 185 183 187 181 178 180 179 187 209 271 313 326 327 327 332 331 332 333 334 337 337 337 335
148 159 151 155 125 146 129 148 132 141 148 132 155 176 183 181 185 184 173 190 233 236 219 233 245 272 301 286 256 177 170 174 179 183 186 186 186 194 203 237 293 315 323 327 331 331 332 333 335 336 336 336 334 332
145 141 125 128 117 121 115 146 136 133 113 196 151 59 296 212 177 185 235 228 250 242 241 251 265 278 296 185 154 170 168 170 175 163 168 178 190 197 218 281 311 321 329 330 330 331 334 335 337 337 335 335 332 334
134 110 118 116 114 130 132 95 107 113 115 71 92 312 274 198 175 159 248 257 249 281 276 251 250 251 200 172 167 164 161 156 170 164 160 168 176 187 260 307 321 332 329 330 332 334 335 338 338 337 336 335 336 337
106 56 114 44 99 102 78 43 360 61 152 227 109 310 265 175 103 235 230 270 340 290 267 207 176 180 185 173 159 156 155 152 161 173 165 155 166 254 303 330 336 332 331 334 334 334 339 339 337 337 339 338 338 339
85 43 89 168 134 116 173 117 174 184 139 109 226 185 152 97 77 249 238 326 335 324 238 181 173 151 161 175 166 157 160 156 156 162 154 155 194 216 346 338 334 334 335 333 335 342 340 337 338 339 341 344 344 342
108 135 100 99 105 120 85 85 109 101 133 186 210 135 97 152 248 254 292 336 334 317 260 196 181 171 158 160 163 157 153 163 169 173 172 166 144 8 345 340 339 336 334 336 343 341 339 341 343 343 343 348 350 347
103 142 128 138 96 78 116 80 122 183 223 181 133 174 180 193 232 280 312 316 314 303 255 195 185 176 173 159 161 160 157 163 166 160 156 145 31 352 347 342 337 337 340 345 345 341 343 344 344 345 347 348 352 353
80 123 119 50 67 71 162 153 193 167 155 169 188 246 196 234 232 302 313 298 291 275 211 184 179 173 167 164 165 164 160 156 158 153 136 60 3 351 341 336 339 343 349 349 345 346 347 344 344 347 348 348 350 353
107 114 96 87 108 188 150 157 145 156 163 188 260 280 270 279 304 322 322 312 257 180 172 168 164 160 152 150 153 154 152 151 153 143 70 6 351 339 337 342 349 353 351 345 346 347 345 345 349 350 352 356 358 6
116 99 82 79 131 121 149 175 181 215 244 242 237 241 249 291 331 352 16 63 112 139 152 152 150 148 144 151 150 147 144 141 134 99 23 354 344 343 350 357 357 352 347 347 348 348 352 355 357 1 4 7 14 17
77 67 116 86 66 127 140 170 175 190 193 184 173 203 217 220 106 48 54 105 118 130 141 144 146 146 145 144 143 142 143 137 112 46 6 349 350 360 6 0 354 348 348 349 350 355 358 0 4 8 13 20 24 25
73 69 79 105 96 102 117 125 72 79 121 96 176 202 182 158 114 107 113 125 126 131 137 140 143 144 143 143 142 143 139 117 61 2 354 2 13 14 5 355 348 348 349 351 358 2 4 9 16 20 27 31 32 35
Wind_Speed_850mb
52 51 50 53 50 50 52 56 55 57 64 63 63 61 53 44 41 34 30 24 15 11 37 42 38 23 26 19 6 16 19 4 5 6 7 6 5 5 4 4 6 7 7 5 6 7 5 26 11 9 6 16 18 23
52 52 50 53 48 51 51 51 53 54 61 61 61 56 49 43 37 29 25 21 20 25 29 51 53 49 33 33 17 8 9 12 8 6 6 8 5 6 1 4 6 6 6 4 8 6 8 14 16 19 18 19 16 23
53 52 51 52 49 50 48 52 49 54 58 57 58 52 46 37 33 26 25 26 21 16 31 15 18 19 14 17 17 7 7 13 15 20 6 5 4 6 5 5 2 6 7 4 3 11 8 20 19 37 28 27 24 19
55 52 49 51 47 49 46 49 47 53 56 53 51 45 41 36 29 26 25 17 14 14 7 10 14 19 21 21 15 19 28 28 34 33 7 4 4 8 4 3 6 5 11 12 6 7 4 14 38 37 35 27 24 18
58 53 48 48 47 48 44 47 45 48 48 51 42 39 38 36 31 23 19 16 17 11 7 18 34 12 14 18 12 18 22 28 23 6 3 3 4 5 2 6 5 9 6 5 4 5 7 14 34 29 41 38 33 26
59 52 48 47 49 46 42 45 45 43 45 49 38 37 33 33 23 16 2 5 14 12 9 6 9 9 15 13 14 18 14 9 9 8 4 4 2 5 5 4 4 13 16 13 9 32 33 25 18 28 35 33 29 23
60 52 46 46 49 41 40 41 39 40 40 39 33 34 31 24 15 5 7 15 15 17 6 9 8 6 17 9 9 9 7 8 7 8 7 7 6 10 5 3 9 22 23 2 17 22 6 25 20 31 26 23 21 21
64 52 46 46 48 38 39 36 33 39 40 35 35 31 26 22 13 14 13 15 15 7 7 1 7 5 15 6 6 9 6 5 9 6 7 5 12 7 5 3 18 25 10 1 17 19 15 16 20 22 19 19 20 25
65 55 46 47 44 34 38 29 31 34 34 34 30 18 12 5 8 9 14 15 9 9 4 2 4 6 15 5 7 4 6 5 7 4 2 6 5 4 6 11 17 22 16 19 14 11 17 28 30 29 27 27 28 28
65 56 46 47 39 32 33 23 26 29 30 29 15 3 3 6 9 12 4 3 4 4 8 3 3 5 13 11 4 7 6 1 2 5 15 5 3 2 5 8 11 11 16 21 21 30 34 40 40 38 36 31 29 28
66 55 49 45 35 31 27 19 22 19 26 9 9 3 8 8 6 2 3 3 2 4 5 3 4 3 8 3 4 6 3 2 4 6 5 4 4 4 5 5 7 9 13 19 23 24 24 27 30 31 32 32 30 28
65 55 50 43 33 27 21 19 18 23 18 14 18 18 8 3 4 2 4 4 3 7 4 4 3 5 5 4 2 3 2 5 5 9 6 4 5 5 5 5 11 19 24 27 30 31 31 30 29 28 28 27 28 28
69 56 51 40 33 27 19 17 20 24 26 12 5 4 5 3 6 8 6 7 3 5 6 2 3 3 3 3 3 6 6 6 7 7 5 7 8 14 14 21 25 26 27 27 26 24 21 19 19 20 23 24 25 26
69 59 50 39 33 30 22 24 23 18 9 7 7 8 9 6 8 8 8 7 4 4 7 7 3 2 2 5 2 5 6 5 7 5 9 6 27 27 27 29 29 27 22 18 15 15 15 17 20 24 27 30 33 35
69 61 48 38 34 31 25 28 21 7 10 10 9 10 10 12 6 10 10 7 8 9 8 4 2 3 3 4 3 5 10 5 10 9 6 29 42 38 37 34 28 21 14 11 11 12 13 14 19 23 29 34 40 44
69 53 49 44 35 27 21 25 23 17 9 11 13 6 6 3 4 9 16 10 11 12 10 2 2 4 5 6 4 11 10 10 7 7 13 49 47 43 41 34 25 15 8 9 12 12 13 18 25 31 37 43 46 53
70 49 56 42 36 27 25 20 17 17 14 10 10 20 10 4 5 10 12 11 19 17 3 5 4 11 2 4 6 8 9 7 6 3 39 44 45 44 39 30 19 9 6 10 14 15 20 26 34 41 47 52 56 56
73 63 46 44 37 30 26 24 14 13 14 14 7 12 14 12 10 12 15 16 17 13 5 4 6 2 7 6 6 6 14 7 6 21 35 39 39 38 31 23 13 4 9 15 20 21 25 33 40 47 54 59 60 56
73 59 49 40 35 22 16 19 12 9 16 7 9 12 9 7 18 13 15 19 21 11 4 4 5 6 6 8 7 10 12 17 22 30 33 38 35 32 28 19 8 3 14 20 24 25 31 39 46 53 57 59 59 49
64 54 41 38 34 18 12 11 13 7 8 10 9 11 6 5 8 13 18 18 21 8 6 6 8 6 9 9 20 26 20 22 35 37 36 38 36 33 24 13 5 9 20 27 28 31 38 45 50 54 55 52 49 45
69 58 52 39 26 10 10 11 10 8 9 7 9 8 6 7 7 12 13 19 13 10 6 19 22 18 24 30 29 15 17 26 34 25 42 41 35 30 22 13 9 17 26 30 30 37 46 50 54 54 49 41 39 41
69 55 42 29 9 12 7 10 10 13 8 9 8 7 5 5 8 10 14 14 12 12 15 10 14 14 20 19 10 19 25 27 23 10 26 29 32 27 20 10 14 22 28 28 36 44 48 52 51 45 40 39 44 50
68 47 24 11 9 6 6 15 6 7 6 3 6 4 3 4 6 10 7 11 11 14 20 21 22 21 11 6 18 20 24 23 17 11 22 22 22 17 10 9 18 23 25 34 40 46 49 47 41 38 42 48 55 58
53 15 10 8 7 5 12 5 6 7 6 5 5 1 4 5 5 2 6 8 7 10 10 13 13 8 9 16 18 23 22 19 14 18 21 18 15 9 6 14 15 20 31 37 43 45 43 37 35 41 50 57 59 63
16 7 7 7 7 9 7 5 7 7 3 3 4 4 4 5 2 3 6 5 5 6 6 7 13 8 16 24 27 24 21 18 15 19 21 17 8 4 8 8 18 28 35 39 41 39 33 33 41 48 52 56 62 66
12 4 5 8 4 8 8 7 6 10 5 2 7 1 3 4 3 9 5 5 6 7 4 10 19 15 16 22 24 22 22 23 22 19 16 9 3 1 6 17 26 32 36 37 34 30 33 41 48 52 54 57 59 62
10 3 8 10 12 18 11 10 8 7 5 8 5 4 4 3 7 6 4 6 11 11 6 14 19 21 19 22 22 21 20 21 19 13 11 8 6 5 15 23 27 32 32 29 27 33 42 49 52 55 60 57 54 57
11 14 14 12 12 8 10 5 6 9 6 8 11 5 10 12 6 2 4 15 12 11 6 18 22 24 27 25 22 22 20 20 19 15 14 9 3 12 20 26 29 29 25 24 31 40 46 50 54 58 58 58 56 54
11 23 16 10 9 6 5 8 10 8 9 10 5 3 3 3 4 9 13 11 9 7 10 20 23 25 30 31 28 24 23 23 22 19 9 5 12 18 23 25 23 20 22 30 38 44 47 52 56 55 53 54 53 50
8 9 13 5 8 4 4 10 7 14 11 6 4 4 5 5 6 11 9 6 3 6 17 24 28 33 35 32 31 30 29 27 19 9 4 9 14 19 20 19 17 21 28 35 37 39 43 45 42 40 41 43 45 47
15 8 10 6 5 5 10 16 11 8 6 6 9 8 5 4 4 7 8 5 9 15 24 31 36 39 38 35 34 33 27 20 11 5 5 10 14 16 15 15 19 26 33 36 40 45 45 43 42 42 41 41 44 48
6 8 9 6 1 5 9 6 3 4 5 4 2 3 2 2 1 4 8 11 16 20 28 34 36 39 41 37 31 22 18 13 6 6 8 10 12 13 13 17 24 30 33 38 42 42 41 40 40 40 39 42 45 47
8 8 9 9 6 4 4 4 2 1 2 3 1 2 2 2 4 5 10 14 19 24 29 35 39 39 36 29 22 18 12 7 4 5 8 10 11 12 15 21 27 30 34 38 38 36 34 34 33 33 37 40 44 48
Wind_Direction_850mb
299 299 304 309 306 312 316 317 323 321 326 329 332 333 332 333 332 332 335 336 297 262 276 282 281 276 295 294 294 318 331 346 294 318 318 345 353 31 69 10 353 13 325 19 349 57 358 349 360 49 286 314 330 350
293 294 300 306 304 307 314 317 319 321 328 329 332 332 329 329 330 329 324 315 302 267 279 291 290 294 282 277 288 292 269 287 320 331 342 307 342 351 60 42 360 32 360 357 29 53 51 36 52 16 355 326 340 346
287 289 298 305 303 304 312 316 317 320 327 328 332 332 334 329 327 324 316 311 306 288 300 283 297 310 296 294 279 283 291 337 305 307 288 286 14 340 25 13 52 1 8 22 143 16 54 55 27 23 21 5 357 351
283 286 293 300 299 301 310 312 315 320 327 327 327 332 339 331 321 315 312 306 308 285 272 289 305 310 303 301 285 282 284 299 300 298 240 292 358 9 32 101 68 342 335 333 75 22 304 44 12 1 0 1 11 3
279 282 287 295 295 299 306 310 313 321 322 324 320 321 326 328 322 313 299 288 304 283 274 292 302 303 316 307 279 288 290 288 287 292 285 356 7 4 27 68 34 4 355 5 305 56 309 293 337 342 352 353 359 2
274 275 281 290 290 297 304 308 311 324 324 325 316 310 323 326 311 316 282 73 5 287 300 309 301 303 333 306 294 295 312 311 279 283 321 353 306 303 87 91 67 12 342 314 298 307 304 306 303 330 342 348 356 1
268 270 273 283 286 292 299 305 313 319 319 321 314 313 311 314 311 308 297 303 329 339 271 309 309 290 340 346 333 328 332 311 322 336 10 320 337 7 60 91 351 346 342 62 337 340 72 2 340 348 349 351 359 7
262 263 267 276 281 287 294 301 308 321 318 310 310 304 293 273 262 271 285 301 313 306 262 266 275 341 360 328 329 322 313 295 15 352 5 15 325 62 62 291 347 353 26 22 24 36 17 359 359 13 16 20 21 18
256 256 261 268 277 281 289 298 308 317 314 314 308 308 309 236 234 257 276 284 269 250 278 178 188 269 347 351 325 293 337 7 339 56 1 342 337 63 234 311 351 3 13 348 21 31 32 32 29 32 34 35 34 29
249 251 254 263 270 274 286 291 303 311 315 320 299 244 273 271 267 297 287 272 224 234 232 205 280 295 341 352 322 343 15 181 26 276 313 75 248 168 306 347 1 11 20 21 39 27 32 40 40 41 39 34 28 26
245 242 246 257 260 268 279 285 297 327 326 344 341 280 297 291 295 267 272 223 315 258 222 254 267 266 349 43 250 23 222 299 55 277 99 335 320 227 356 12 12 41 52 59 60 56 53 52 51 52 50 46 40 34
238 233 240 250 249 259 265 263 292 300 320 305 297 296 288 250 216 92 256 333 141 240 212 177 262 265 308 315 30 338 147 32 248 321 68 341 247 165 128 113 86 89 87 83 79 74 69 64 58 53 47 41 34 29
232 226 232 238 238 245 248 236 262 266 280 294 230 228 232 222 32 149 245 296 313 209 196 209 295 271 273 299 61 60 63 233 313 39 217 222 166 159 144 126 114 105 96 86 77 69 60 51 42 34 29 22 16 9
224 216 227 226 229 234 239 228 256 279 200 203 213 230 171 275 236 189 185 193 220 227 203 189 254 243 333 31 164 81 238 60 39 32 235 228 179 161 149 137 126 117 107 89 68 51 36 28 24 17 8 1 354 347
212 209 217 212 221 232 220 213 236 236 194 208 193 232 215 221 194 186 192 199 208 202 198 146 304 258 324 66 53 78 21 290 199 227 223 172 163 160 153 143 135 119 93 60 33 18 15 14 3 353 347 342 338 334
200 198 201 206 214 210 202 212 223 204 210 212 222 243 195 71 275 214 211 204 191 181 178 171 148 45 278 140 69 220 125 225 254 225 170 160 162 159 153 145 135 117 80 29 2 347 345 344 342 340 338 334 331 327
186 191 193 197 195 197 200 197 181 187 205 210 237 219 209 220 192 176 194 179 167 157 197 176 157 225 78 28 276 196 207 225 261 242 163 167 163 158 154 147 137 112 41 358 346 338 334 331 331 331 330 330 331 329
186 189 186 182 183 184 190 187 189 202 216 209 198 191 196 204 184 187 199 190 171 185 176 219 133 155 205 200 263 247 237 244 170 161 164 167 166 161 156 151 142 85 359 342 338 331 327 326 329 330 330 329 329 330
185 178 175 181 186 173 161 181 191 213 213 188 204 196 195 203 211 205 193 190 192 181 186 193 231 217 232 224 246 298 275 206 172 160 166 169 168 167 162 162 166 344 342 336 334 329 329 330 331 331 330 331 333 338
169 166 169 174 178 170 149 171 187 189 181 178 181 179 182 193 180 198 202 199 187 200 209 213 221 221 235 293 302 298 296 202 177 161 169 174 173 171 173 184 222 320 332 334 330 329 331 331 331 331 334 334 336 338
149 152 162 170 166 143 155 163 155 155 156 164 158 178 174 182 200 191 181 175 190 218 238 235 239 259 273 283 292 283 185 185 183 187 181 178 180 179 187 209 271 313 326 327 327 332 331 332 333 334 337 337 337 335
148 159 151 155 125 146 129 148 132 141 148 132 155 176 183 181 185 184 173 190 233 236 219 233 245 272 301 286 256 177 170 174 179 183 186 186 186 194 203 237 293 315 323 327 331 331 332 333 335 336 336 336 334 332
145 141 125 128 117 121 115 146 136 133 113 196 151 59 296 212 177 185 235 228 250 242 241 251 265 278 296 185 154 170 168 170 175 163 168 178 190 197 218 281 311 321 329 330 330 331 334 335 337 337 335 335 332 334
134 110 118 116 114 130 132 95 107 113 115 71 92 312 274 198 175 159 248 257 249 281 276 251 250 251 200 172 167 164 161 156 170 164 160 168 176 187 260 307 321 332 329 330 332 334 335 338 338 337 336 335 336 337
106 56 114 44 99 102 78 43 360 61 152 227 109 310 265 175 103 235 230 270 340 290 267 207 176 180 185 173 159 156 155 152 161 173 165 155 166 254 303 330 336 332 331 334 334 334 339 339 337 337 339 338 338 339
85 43 89 168 134 116 173 117 174 184 139 109 226 185 152 97 77 249 238 326 335 324 238 181 173 151 161 175 166 157 160 156 156 162 154 155 194 216 346 338 334 334 335 333 335 342 340 337 338 339 341 344 344 342
108 135 100 99 105 120 85 85 109 101 133 186 210 135 97 152 248 254 292 336 334 317 260 196 181 171 158 160 163 157 153 163 169 173 172 166 144 8 345 340 339 336 334 336 343 341 339 341 343 343 343 348 350 347
103 142 128 138 96 78 116 80 122 183 223 181 133 174 180 193 232 280 312 316 314 303 255 195 185 176 173 159 161 160 157 163 166 160 156 145 31 352 347 342 337 337 340 345 345 341 343 344 344 345 347 348 352 353
80 123 119 50 67 71 162 153 193 167 155 169 188 246 196 234 232 302 313 298 291 275 211 184 179 173 167 164 165 164 160 156 158 153 136 60 3 351 341 336 339 343 349 349 345 346 347 344 344 347 348 348 350 353
107 114 96 87 108 188 150 157 145 156 163 188 260 280 270 279 304 322 322 312 257 180 172 168 164 160 152 150 153 154 152 151 153 143 70 6 351 339 337 342 349 353 351 345 346 347 345 345 349 350 352 356 358 6
116 99 82 79 131 121 149 175 181 215 244 242 237 241 249 291 331 352 16 63 112 139 152 152 150 148 144 151 150 147 144 141 134 99 23 354 344 343 350 357 357 352 347 347 348 348 352 355 357 1 4 7 14 17
77 67 116 86 66 127 140 170 175 190 193 184 173 203 217 220 106 48 54 105 118 130 141 144 146 146 145 144 143 142 143 137 112 46 6 349 350 360 6 0 354 348 348 349 350 355 358 0 4 8 13 20 24 25
73 69 79 105 96 102 117 125 72 79 121 96 176 202 182 158 114 107 113 125 126 131 137 140 143 144 143 143 142 143 139 117 61 2 354 2 13 14 5 355 348 348 349 351 358 2 4 9 16 20 27 31 32 35